Weather History for Sylvania, GA

Change the Weather History Date:

Saturday, April 12, 2014

  Actual Average (KSAV) Record (KSAV)
Temperature  
Mean Temperature 69 °F 65 °F  
Max Temperature 83 °F 77 °F 88 °F (1965)
Min Temperature 55 °F 53 °F 35 °F (1989)
Degree Days  
Heating Degree Days 0 3  
Month to date heating degree days 43  
Since 1 July heating degree days 1770  
Cooling Degree Days 4 3  
Month to date cooling degree days 27  
Year to date cooling degree days 69  
Growing Degree Days 19 (Base 50)    
Moisture  
Dew Point 53 °F    
Average Humidity 61    
Maximum Humidity 91    
Minimum Humidity 29    
Precipitation  
Precipitation 0.00 in 0.11 in 2.49 in (2004)
Month to date precipitation 1.31  
Year to date precipitation 11.52  
Sea Level Pressure  
Sea Level Pressure 30.19 in    
Wind  
Wind Speed 1 mph (SW)    
Max Wind Speed 8 mph    
Max Gust Speed -    
Visibility 10 miles    
Events      
T = Trace of Precipitation, MM = Missing Value Source: NWS Daily Summary

Daily Weather History Graph

Daily Weather History Graph

Search for Another Location

Airport:

Trip Planner

Search our weather history database for the weather conditions in past years. The results will help you decide how hot, cold, wet, or windy it might be!

Date:

Astronomy

Apr. 12, 2014 Rise Set
Actual Time 7:00 AM EDT 7:54 PM EDT
Civil Twilight 6:35 AM EDT 8:19 PM EDT
Nautical Twilight 6:05 AM EDT 8:49 PM EDT
Astronomical Twilight 5:35 AM EDT 9:19 PM EDT
Moon 5:38 PM EDT (4/12) 5:17 AM EDT (4/12)
Length of Visible Light 13h 44m
Length of Day
12h 53m
Waxing Gibbous, 93% of the Moon is Illuminated
Apr 12
Waxing Gibbous
Apr 15
Full
Apr 22
Last Quarter
Apr 29
New
May 6
First Quarter

Hourly Weather History & Observations

Time (EDT) Temp. Dew Point Humidity Pressure Visibility Wind Dir Wind Speed Gust Speed Precip Events Conditions
12:15 AM 64.6 °F 52.7 °F 65% 30.21 in 10.0 mi Calm Calm - N/A   Mostly Cloudy
12:35 AM 63.9 °F 53.4 °F 69% 30.21 in 10.0 mi Calm Calm - N/A   Mostly Cloudy
12:55 AM 63.5 °F 53.8 °F 71% 30.21 in 10.0 mi Calm Calm - N/A   Mostly Cloudy
1:15 AM 61.3 °F 54.9 °F 79% 30.21 in 10.0 mi Calm Calm - N/A   Mostly Cloudy
1:35 AM 61.7 °F 55.4 °F 80% 30.21 in 10.0 mi Calm Calm - N/A   Mostly Cloudy
1:55 AM 61.0 °F 55.9 °F 83% 30.21 in 10.0 mi Calm Calm - N/A   Mostly Cloudy
2:15 AM 60.8 °F 55.2 °F 82% 30.21 in 10.0 mi Calm Calm - N/A   Mostly Cloudy
2:35 AM 60.1 °F 54.5 °F 82% 30.21 in 10.0 mi Calm Calm - N/A   Mostly Cloudy
2:55 AM 59.4 °F 54.5 °F 84% 30.20 in 10.0 mi Calm Calm - N/A   Mostly Cloudy
3:15 AM 58.8 °F 53.8 °F 83% 30.20 in 10.0 mi Calm Calm - N/A   Scattered Clouds
3:35 AM 57.6 °F 53.4 °F 86% 30.19 in 10.0 mi Calm Calm - N/A   Scattered Clouds
3:55 AM 57.0 °F 53.6 °F 88% 30.19 in 10.0 mi Calm Calm - N/A   Clear
4:15 AM 56.7 °F 53.4 °F 89% 30.19 in 10.0 mi Calm Calm - N/A   Clear
4:35 AM 56.8 °F 53.4 °F 88% 30.19 in 10.0 mi Calm Calm - N/A   Clear
4:55 AM 57.0 °F 53.8 °F 89% 30.19 in 10.0 mi Calm Calm - N/A   Clear
5:15 AM 57.2 °F 53.8 °F 88% 30.19 in 10.0 mi Calm Calm - N/A   Clear
5:35 AM 56.5 °F 53.4 °F 89% 30.19 in 10.0 mi Calm Calm - N/A   Clear
5:55 AM 56.7 °F 53.6 °F 89% 30.19 in 10.0 mi Calm Calm - N/A   Clear
6:15 AM 56.3 °F 53.2 °F 89% 30.20 in 10.0 mi Calm Calm - N/A   Clear
6:35 AM 56.3 °F 53.2 °F 89% 30.20 in 10.0 mi Calm Calm - N/A   Clear
6:55 AM 55.9 °F 53.1 °F 90% 30.21 in 10.0 mi Calm Calm - N/A   Clear
7:15 AM 55.6 °F 52.7 °F 90% 30.21 in 10.0 mi Calm Calm - N/A   Clear
7:35 AM 56.1 °F 53.2 °F 90% 30.22 in 7.0 mi Calm Calm - N/A   Clear
7:55 AM 57.7 °F 55.0 °F 91% 30.22 in 5.0 mi Calm Calm - N/A   Clear
8:15 AM 59.9 °F 56.7 °F 89% 30.23 in 10.0 mi Calm Calm - N/A   Clear
8:35 AM 62.8 °F 57.6 °F 83% 30.23 in 10.0 mi Calm Calm - N/A   Clear
8:55 AM 65.3 °F 58.3 °F 78% 30.23 in 10.0 mi SW 3.5 mph - N/A   Clear
9:15 AM 67.8 °F 59.7 °F 75% 30.24 in 10.0 mi Calm Calm - N/A   Clear
9:35 AM 70.0 °F 60.4 °F 72% 30.24 in 10.0 mi WSW 4.6 mph - N/A   Clear
9:55 AM 70.9 °F 59.9 °F 68% 30.24 in 10.0 mi West 3.5 mph - N/A   Clear
10:15 AM 72.9 °F 59.9 °F 64% 30.25 in 10.0 mi West 3.5 mph - N/A   Scattered Clouds
10:35 AM 73.8 °F 58.8 °F 59% 30.25 in 10.0 mi SW 3.5 mph - N/A   Scattered Clouds
10:55 AM 75.2 °F 57.7 °F 54% 30.26 in 10.0 mi SW 3.5 mph - N/A   Mostly Cloudy
11:15 AM 76.3 °F 55.6 °F 49% 30.25 in 10.0 mi SSW 4.6 mph - N/A   Overcast
11:35 AM 77.4 °F 53.6 °F 44% 30.25 in 10.0 mi SW 3.5 mph - N/A   Overcast
11:55 AM 77.9 °F 53.6 °F 43% 30.25 in 10.0 mi Calm Calm - N/A   Mostly Cloudy
12:15 PM 77.7 °F 53.4 °F 43% 30.24 in 10.0 mi SSE 3.5 mph - N/A   Mostly Cloudy
12:35 PM 77.7 °F 52.7 °F 42% 30.24 in 10.0 mi SW 4.6 mph - N/A   Mostly Cloudy
12:55 PM 78.6 °F 53.6 °F 42% 30.23 in 10.0 mi South 3.5 mph - N/A   Scattered Clouds
1:15 PM 79.9 °F 52.9 °F 39% 30.22 in 10.0 mi WSW 5.8 mph - N/A   Scattered Clouds
1:35 PM 79.9 °F 51.8 °F 38% 30.21 in 10.0 mi SW 5.8 mph - N/A   Scattered Clouds
1:55 PM 80.8 °F 50.9 °F 35% 30.20 in 10.0 mi West 8.1 mph - N/A   Scattered Clouds
2:15 PM 81.5 °F 50.5 °F 34% 30.19 in 10.0 mi West 6.9 mph - N/A   Clear
2:35 PM 81.0 °F 50.5 °F 35% 30.19 in 10.0 mi SW 6.9 mph - N/A   Scattered Clouds
2:55 PM 81.3 °F 50.9 °F 35% 30.19 in 10.0 mi West 5.8 mph - N/A   Mostly Cloudy
3:15 PM 82.4 °F 49.5 °F 32% 30.18 in 10.0 mi West 4.6 mph - N/A   Scattered Clouds
3:35 PM 81.1 °F 50.2 °F 34% 30.17 in 10.0 mi South 8.1 mph - N/A   Mostly Cloudy
3:55 PM 82.6 °F 50.4 °F 33% 30.16 in 10.0 mi SSE 4.6 mph - N/A   Mostly Cloudy
4:15 PM 83.1 °F 50.7 °F 32% 30.16 in 10.0 mi Calm Calm - N/A   Scattered Clouds
4:35 PM 82.9 °F 50.2 °F 32% 30.15 in 10.0 mi WNW 5.8 mph - N/A   Scattered Clouds
4:55 PM 82.4 °F 48.7 °F 31% 30.14 in 10.0 mi SW 4.6 mph - N/A   Scattered Clouds
5:15 PM 82.6 °F 49.1 °F 31% 30.14 in 10.0 mi Calm Calm - N/A   Clear
5:35 PM 82.8 °F 49.1 °F 31% 30.14 in 10.0 mi South 3.5 mph - N/A   Clear
5:55 PM 82.6 °F 48.7 °F 31% 30.14 in 10.0 mi SW 4.6 mph - N/A   Clear
6:15 PM 82.4 °F 47.3 °F 29% 30.13 in 10.0 mi WSW 4.6 mph - N/A   Clear
6:35 PM 81.7 °F 49.3 °F 32% 30.13 in 10.0 mi SW 4.6 mph - N/A   Clear
6:55 PM 81.0 °F 50.4 °F 34% 30.13 in 10.0 mi SSW 3.5 mph - N/A   Clear
7:15 PM 79.3 °F 51.8 °F 38% 30.13 in 10.0 mi Calm Calm - N/A   Clear
7:35 PM 76.5 °F 54.1 °F 46% 30.14 in 10.0 mi South 5.8 mph - N/A   Scattered Clouds
7:55 PM 75.2 °F 53.8 °F 47% 30.14 in 10.0 mi SSE 5.8 mph - N/A   Clear
8:15 PM 73.6 °F 53.8 °F 50% 30.15 in 10.0 mi South 4.6 mph - N/A   Clear
8:35 PM 72.9 °F 53.6 °F 51% 30.16 in 10.0 mi South 3.5 mph - N/A   Clear
8:55 PM 71.2 °F 53.8 °F 54% 30.17 in 10.0 mi SSE 3.5 mph - N/A   Clear
9:15 PM 70.7 °F 53.4 °F 54% 30.17 in 10.0 mi South 3.5 mph - N/A   Clear
9:35 PM 69.4 °F 53.8 °F 57% 30.18 in 10.0 mi Calm Calm - N/A   Clear
9:55 PM 68.5 °F 54.0 °F 60% 30.18 in 10.0 mi SSE 3.5 mph - N/A   Clear
10:15 PM 67.6 °F 53.6 °F 61% 30.18 in 10.0 mi Calm Calm - N/A   Clear
10:35 PM 67.5 °F 52.9 °F 59% 30.19 in 10.0 mi Calm Calm - N/A   Clear
10:55 PM 67.1 °F 52.9 °F 60% 30.19 in 10.0 mi Calm Calm - N/A   Clear
11:15 PM 64.4 °F 54.0 °F 69% 30.19 in 10.0 mi Calm Calm - N/A   Clear
11:35 PM 64.2 °F 54.0 °F 69% 30.19 in 10.0 mi Calm Calm - N/A   Clear
11:55 PM 62.6 °F 54.7 °F 75% 30.19 in 10.0 mi Calm Calm - N/A   Clear